Regional Weather Roundup
Issued by NWS

Home | Current Version | Previous Version | Graphics & Text | Print | Product List | Glossary On
Versions: 1 2 3 4 5 6 7 8 9 10 11 12 13 14 15 16 17 18 19 20 21 22 23 24 25 26 27 28 29 30 31 32 33 34 35 36 37 38 39 40 41 42 43 44 45 46 47 48 49 50
000
ASUS43 KIND 281159
RWRIN

WEATHER ROUNDUP FOR INDIANA
NATIONAL WEATHER SERVICE INDIANAPOLIS IN
800 AM EDT TUE JUL 28 2015

NOTE: "FAIR" INDICATES FEW OR NO CLOUDS BELOW 12,000 FEET WITH NO
SIGNIFICANT WEATHER AND/OR OBSTRUCTIONS TO VISIBILITY.

* - STATION DOES NOT REPORT WEATHER SUCH AS PRECIPITATION OR FOG.

+ - STATION NOT QUALITY CONTROLLED BY THE NATIONAL WEATHER SERVICE.
    USE DATA WITH CAUTION...ESPECIALLY DEWPOINT AND RELATIVE
    HUMIDITY OBSERVATIONS.

INZ001>003-010>013-019-020-281300-
NORTHWEST INDIANA

CITY           SKY/WX    TMP DP  RH WIND       PRES   REMARKS
GARY /AIRPORT/ MOSUNNY   73  66  78 SE8       30.01R
MONTICELLO +   PTSUNNY   72  68  87 CALM      30.00R
6HR MIN TEMP:  69; 6HR MAX TEMP:  73;

RENSSELAER +   PTSUNNY   70  68  94 E5        30.00S

$$

LMZ046-743>745-281300-
SOUTHERN LAKE MICHIGAN

STATION/POSITION TIME  TEMP    WIND        PRES    WAVE
                       AIR SEA DIR/SP/G            HT
                 (UTC) (F)     (DEG/KT/KT) (MB)    (FT)
BURNS HARBOR     1100   76     130/ 10/ 17 1015.9S
MICHIGAN CITY    1100   71     110/  7/  8   N/A
5NW MICH CITY    1100   72 74  160/  8/ 10   N/A     1

$$

INZ004-005-014>016-021>024-281300-
NORTH CENTRAL INDIANA

CITY           SKY/WX    TMP DP  RH WIND       PRES   REMARKS
ELKHART        SUNNY     66  63  88 CALM      30.03S
GOSHEN         SUNNY     68  63  84 SE3       30.03S
6HR MIN TEMP:  61; 6HR MAX TEMP:  68;

SOUTH BEND     SUNNY     69  63  81 E5        30.03S
6HR MIN TEMP:  65; 6HR MAX TEMP:  72;


$$

INZ006>009-017-018-025>027-281300-
NORTHEAST INDIANA

CITY           SKY/WX    TMP DP  RH WIND       PRES   REMARKS
ANGOLA *+      SUNNY     68  59  73 CALM      30.05S
FORT WAYNE     MOSUNNY   69  63  81 E7        30.04R
6HR MIN TEMP:  66; 6HR MAX TEMP:  70;


$$

INZ028-029-035-036-043>045-051>053-281300-
WEST CENTRAL INDIANA

CITY           SKY/WX    TMP DP  RH WIND       PRES   REMARKS
CRAWFORDSVL +  MOSUNNY   71  71 100 CALM        N/A  FOG
6HR MIN TEMP:  67; 6HR MAX TEMP:  72; 6HR PCP:  0.02;

GREENCASTLE +  PTSUNNY   72  68  88 E3        30.00S FOG
LAFAYETTE      SUNNY     72  67  84 E5        29.99R
6HR MIN TEMP:  69; 6HR MAX TEMP:  73;

TERRE HAUTE    CLOUDY    75  73  93 CALM      29.98R FOG
6HR MIN TEMP:  73; 6HR MAX TEMP:  75;


$$

INZ030>032-037>040-046>048-054>057-064-065-281300-
CENTRAL INDIANA

CITY           SKY/WX    TMP DP  RH WIND       PRES   REMARKS
COLUMBUS       SUNNY     72  68  88 CALM      29.99R FOG
INDIANAPOLIS   MOSUNNY   75  70  84 E6        29.99R HAZE
6HR MIN TEMP:  74; 6HR MAX TEMP:  76;

-EAGLE CREEK   SUNNY     74  71  91 E6        29.99S FOG
6HR MIN TEMP:  72; 6HR MAX TEMP:  76;

KOKOMO *+      SUNNY     70  64  83 CALM      30.01S
6HR MIN TEMP:  66; 6HR MAX TEMP:  70;

MT COMFORT *+  SUNNY     72 N/A N/A E3        30.01S
SHELBYVILLE    SUNNY     73  70  90 E6        30.00R FOG
6HR MIN TEMP:  71; 6HR MAX TEMP:  75;


$$

INZ033-034-041-042-049-050-058-059-281300-
EAST CENTRAL INDIANA

CITY           SKY/WX    TMP DP  RH WIND       PRES   REMARKS
MUNCIE         SUNNY     71  68  90 E3        30.02S
6HR MIN TEMP:  68; 6HR MAX TEMP:  72;


$$

INZ060-061-067>069-081>083-085>088-281300-
SOUTHWEST INDIANA

CITY           SKY/WX    TMP DP  RH WIND       PRES   REMARKS
EVANSVILLE     MOSUNNY   76  73  91 CALM      29.97S FOG
6HR MIN TEMP:  73; 6HR MAX TEMP:  77;

HUNTINGBURG *+ SUNNY     75  72  88 S3        29.98S
6HR MIN TEMP:  73; 6HR MAX TEMP:  79;


$$

INZ062-063-066-070>080-084-089>092-281300-
SOUTH CENTRAL AND SOUTHEAST INDIANA

CITY           SKY/WX    TMP DP  RH WIND       PRES   REMARKS
BLOOMINGTON    PTSUNNY   75  73  93 CALM      29.99R
6HR MIN TEMP:  70; 6HR MAX TEMP:  75;

MADISON *+     MOSUNNY   73  72  94 CALM      30.01F

$$



USA.gov is the U.S. government's official web portal to all federal, state and local government web resources and services.